EJU58WQ LPPR-LSGG

Flight info

Callsign EJU58WQ
Flight time 1h 47m
Altitude 36000
Route BELDU9E BELDU DCT ADORO L155 ZMR N976 DGO T429 TOPTU DCT TOU DCT GAI/N0433F300 DCT MEN DCT NINUN UN871 LTP UZ116 BELUS BELUS3R
Aircraft A21N/M-VGDW/C

Departure

Time 2026-05-04 16:46
Airport Francisco de Sá Carneiro Airport (LPPR)

Arrival

Time 2026-05-04 18:33
Airport Geneva International Airport (LSGG)
Time Latitude Longitude Altitude Speed Heading
2026-05-04 15:42 41.23550 -8.67235 248 ft 0 kts 109°
2026-05-04 16:31 41.23554 -8.67249 248 ft 0 kts 109°
2026-05-04 16:34 41.23558 -8.67270 248 ft 4 kts 99°
2026-05-04 16:35 41.23600 -8.67342 244 ft 4 kts 177°
2026-05-04 16:35 41.23653 -8.67336 245 ft 2 kts 168°
2026-05-04 16:40 41.23652 -8.67336 245 ft 1 kts 168°
2026-05-04 16:41 41.23633 -8.67331 245 ft 2 kts 170°
2026-05-04 16:41 41.23449 -8.67378 242 ft 5 kts 167°
2026-05-04 16:42 41.23440 -8.67375 243 ft 2 kts 167°
2026-05-04 16:43 41.23380 -8.67359 242 ft 6 kts 180°
2026-05-04 16:43 41.23327 -8.67459 239 ft 8 kts 261°
2026-05-04 16:43 41.23317 -8.67537 238 ft 9 kts 260°
2026-05-04 16:44 41.23644 -8.67822 238 ft 74 kts 347°
2026-05-04 16:45 41.25453 -8.68277 579 ft 159 kts 347°
2026-05-04 16:46 41.28883 -8.69097 2464 ft 179 kts 343°
2026-05-04 16:46 41.31486 -8.69784 3280 ft 225 kts 344°
2026-05-04 16:47 41.34774 -8.70670 4720 ft 252 kts 351°
2026-05-04 16:47 41.38215 -8.69537 6495 ft 274 kts 37°
2026-05-04 16:48 41.40095 -8.62144 8915 ft 298 kts 86°
2026-05-04 16:48 41.40147 -8.59367 9884 ft 299 kts 89°
2026-05-04 16:49 41.40178 -8.53556 10862 ft 335 kts 88°
2026-05-04 16:49 41.40360 -8.46997 11718 ft 370 kts 86°
2026-05-04 16:50 41.40664 -8.40025 13188 ft 383 kts 85°
2026-05-04 16:50 41.41000 -8.32831 14587 ft 395 kts 86°
2026-05-04 16:51 41.41335 -8.25477 15924 ft 406 kts 86°
2026-05-04 16:51 41.41502 -8.21691 16599 ft 410 kts 86°
2026-05-04 16:51 41.41806 -8.14009 17871 ft 420 kts 93°
2026-05-04 16:52 41.41731 -8.06102 18837 ft 431 kts 95°
2026-05-04 16:52 41.41722 -8.02084 19315 ft 435 kts 94°
2026-05-04 16:53 41.41886 -7.93960 20289 ft 442 kts 91°
2026-05-04 16:53 41.42363 -7.81569 21690 ft 454 kts 91°
2026-05-04 16:54 41.42539 -7.77293 22142 ft 458 kts 91°
2026-05-04 16:55 41.43220 -7.60134 23745 ft 472 kts 91°
2026-05-04 16:55 41.43554 -7.51345 24430 ft 477 kts 92°
2026-05-04 16:56 41.43878 -7.42465 25035 ft 483 kts 92°
2026-05-04 16:56 41.44361 -7.28935 25934 ft 491 kts 92°
2026-05-04 16:57 41.44521 -7.24389 26229 ft 493 kts 92°
2026-05-04 16:57 41.44839 -7.15232 26849 ft 496 kts 92°
2026-05-04 16:58 41.45300 -7.01347 27618 ft 503 kts 92°
2026-05-04 16:58 41.45452 -6.96677 27861 ft 505 kts 93°
2026-05-04 16:59 41.45752 -6.87261 28331 ft 509 kts 93°
2026-05-04 17:00 41.46276 -6.68571 29631 ft 506 kts 95°
2026-05-04 17:00 41.46617 -6.54488 30282 ft 506 kts 95°
2026-05-04 17:01 41.46846 -6.45095 30654 ft 506 kts 95°
2026-05-04 17:01 41.47073 -6.35759 31092 ft 503 kts 96°
2026-05-04 17:02 41.47308 -6.26429 31284 ft 506 kts 94°
2026-05-04 17:02 41.47924 -6.17073 31625 ft 504 kts 91°
2026-05-04 17:03 41.48297 -6.12430 31769 ft 504 kts 91°
2026-05-04 17:03 41.49395 -5.98490 32109 ft 504 kts 91°
2026-05-04 17:04 41.50077 -5.89212 32278 ft 504 kts 92°
2026-05-04 17:04 41.50742 -5.79955 32477 ft 504 kts 92°
2026-05-04 17:05 41.51402 -5.70635 32630 ft 505 kts 92°
2026-05-04 17:05 41.52685 -5.61430 32688 ft 507 kts 77°
2026-05-04 17:06 41.55287 -5.52779 33096 ft 500 kts 72°
2026-05-04 17:06 41.56717 -5.48554 33138 ft 500 kts 71°
2026-05-04 17:07 41.60586 -5.37276 33234 ft 502 kts 71°
2026-05-04 17:07 41.63919 -5.27325 33439 ft 501 kts 72°
2026-05-04 17:08 41.68108 -5.14580 33816 ft 496 kts 73°
2026-05-04 17:09 41.70868 -5.06105 33857 ft 497 kts 73°
2026-05-04 17:09 41.73637 -4.97611 33905 ft 498 kts 73°
2026-05-04 17:10 41.80535 -4.76386 34064 ft 497 kts 73°
2026-05-04 17:11 41.83282 -4.67876 34088 ft 497 kts 73°
2026-05-04 17:12 41.87395 -4.55098 34158 ft 497 kts 74°
2026-05-04 17:13 41.94182 -4.33865 34399 ft 493 kts 74°
2026-05-04 17:14 41.99554 -4.16936 34410 ft 494 kts 74°
2026-05-04 17:15 42.03706 -4.04236 34417 ft 495 kts 72°
2026-05-04 17:16 42.09656 -3.87562 34488 ft 494 kts 72°
2026-05-04 17:17 42.15555 -3.70776 34499 ft 495 kts 72°
2026-05-04 17:17 42.19930 -3.58196 34170 ft 490 kts 72°
2026-05-04 17:18 42.21379 -3.54036 34015 ft 492 kts 72°
2026-05-04 17:19 42.27187 -3.37292 33988 ft 495 kts 72°
2026-05-04 17:20 42.32988 -3.20451 33992 ft 494 kts 73°
2026-05-04 17:20 42.37309 -3.07810 34002 ft 494 kts 73°
2026-05-04 17:21 42.42978 -2.91108 34020 ft 483 kts 78°
2026-05-04 17:22 42.43913 -2.86810 34008 ft 471 kts 90°
2026-05-04 17:22 42.44254 -2.82440 33948 ft 466 kts 97°
2026-05-04 17:23 42.44485 -2.64917 33984 ft 466 kts 100°
2026-05-04 17:24 42.44603 -2.51730 33993 ft 468 kts 100°
2026-05-04 17:25 42.44849 -2.34127 33937 ft 472 kts 95°
2026-05-04 17:26 42.47166 -2.18082 33985 ft 476 kts 87°
2026-05-04 17:27 42.50887 -1.96098 33978 ft 481 kts 87°
2026-05-04 17:28 42.53798 -1.78345 33992 ft 484 kts 87°
2026-05-04 17:29 42.58121 -1.51602 33962 ft 485 kts 88°
2026-05-04 17:31 42.61663 -1.29321 33981 ft 481 kts 88°
2026-05-04 17:32 42.65137 -1.07171 33976 ft 479 kts 89°
2026-05-04 17:33 42.67871 -0.89499 33971 ft 479 kts 89°
2026-05-04 17:34 42.70590 -0.71765 33970 ft 479 kts 90°
2026-05-04 17:35 42.73960 -0.49489 33977 ft 481 kts 90°
2026-05-04 17:36 42.75298 -0.40566 33979 ft 481 kts 90°
2026-05-04 17:36 42.76629 -0.31632 33985 ft 481 kts 90°
2026-05-04 17:37 42.77958 -0.22721 33973 ft 482 kts 87°
2026-05-04 17:37 42.80385 -0.14139 33986 ft 490 kts 70°
2026-05-04 17:38 42.84279 -0.06484 34003 ft 494 kts 60°
2026-05-04 17:38 42.88543 0.00848 33997 ft 492 kts 61°
2026-05-04 17:39 42.94628 0.12032 34005 ft 492 kts 64°
2026-05-04 17:39 42.98599 0.19670 34006 ft 493 kts 64°
2026-05-04 17:40 43.02544 0.27307 34013 ft 492 kts 64°
2026-05-04 17:40 43.06494 0.34961 34001 ft 492 kts 64°
2026-05-04 17:41 43.10435 0.42608 34000 ft 492 kts 64°
2026-05-04 17:41 43.14373 0.50274 33998 ft 492 kts 64°
2026-05-04 17:42 43.18298 0.57934 34002 ft 492 kts 64°
2026-05-04 17:42 43.22227 0.65618 33994 ft 492 kts 64°
2026-05-04 17:43 43.26149 0.73303 33991 ft 491 kts 65°
2026-05-04 17:43 43.30060 0.80982 33982 ft 490 kts 66°
2026-05-04 17:44 43.33955 0.88667 33985 ft 491 kts 66°
2026-05-04 17:44 43.37854 0.96375 33975 ft 491 kts 66°
2026-05-04 17:45 43.41753 1.04100 33970 ft 491 kts 66°
2026-05-04 17:45 43.45643 1.11823 33962 ft 490 kts 66°
2026-05-04 17:46 43.49520 1.19536 33958 ft 489 kts 67°
2026-05-04 17:46 43.53379 1.27251 33953 ft 490 kts 67°
2026-05-04 17:47 43.57219 1.34940 33945 ft 490 kts 67°
2026-05-04 17:47 43.61081 1.42690 33937 ft 490 kts 67°
2026-05-04 17:48 43.64938 1.50445 33937 ft 489 kts 67°
2026-05-04 17:48 43.68778 1.58176 33948 ft 486 kts 67°
2026-05-04 17:49 43.72583 1.65864 33945 ft 484 kts 67°
2026-05-04 17:49 43.76377 1.73574 33945 ft 484 kts 67°
2026-05-04 17:50 43.80160 1.81280 33927 ft 484 kts 67°
2026-05-04 17:50 43.83940 1.88989 33936 ft 484 kts 67°
2026-05-04 17:51 43.87724 1.96728 33939 ft 485 kts 67°
2026-05-04 17:51 43.91502 2.04473 33939 ft 485 kts 67°
2026-05-04 17:52 43.95253 2.12179 33935 ft 485 kts 67°
2026-05-04 17:52 43.99022 2.19944 33938 ft 485 kts 67°
2026-05-04 17:53 44.02776 2.27702 33939 ft 484 kts 67°
2026-05-04 17:53 44.06527 2.35485 33942 ft 485 kts 67°
2026-05-04 17:54 44.10275 2.43307 33942 ft 487 kts 67°
2026-05-04 17:54 44.14044 2.51169 33943 ft 489 kts 67°
2026-05-04 17:55 44.17830 2.59066 33944 ft 491 kts 67°
2026-05-04 17:55 44.21623 2.66987 33950 ft 491 kts 67°
2026-05-04 17:56 44.25404 2.74915 33950 ft 491 kts 67°
2026-05-04 17:56 44.29173 2.82867 33951 ft 493 kts 67°
2026-05-04 17:57 44.32876 2.90683 33958 ft 494 kts 67°
2026-05-04 17:57 44.36662 2.98689 33961 ft 493 kts 67°
2026-05-04 17:58 44.40439 3.06705 33937 ft 492 kts 67°
2026-05-04 17:58 44.44175 3.14674 33962 ft 494 kts 67°
2026-05-04 17:59 44.47942 3.22733 33972 ft 496 kts 67°
2026-05-04 18:00 44.53616 3.34874 33970 ft 496 kts 67°
2026-05-04 18:00 44.57384 3.42965 33987 ft 496 kts 67°
2026-05-04 18:01 44.61139 3.51062 33986 ft 495 kts 67°
2026-05-04 18:01 44.64887 3.59169 33976 ft 495 kts 67°
2026-05-04 18:02 44.70500 3.71360 33976 ft 495 kts 67°
2026-05-04 18:02 44.74233 3.79488 33971 ft 495 kts 68°
2026-05-04 18:03 44.77939 3.87589 33982 ft 496 kts 67°
2026-05-04 18:03 44.81679 3.95783 33978 ft 497 kts 67°
2026-05-04 18:04 44.85417 4.03980 33995 ft 497 kts 67°
2026-05-04 18:05 44.90999 4.16278 34011 ft 496 kts 67°
2026-05-04 18:05 44.94707 4.24488 34004 ft 497 kts 67°
2026-05-04 18:06 45.00290 4.36889 34014 ft 499 kts 67°
2026-05-04 18:06 45.04006 4.45161 34024 ft 498 kts 67°
2026-05-04 18:07 45.07710 4.53436 34019 ft 498 kts 67°
2026-05-04 18:07 45.11411 4.61734 34000 ft 497 kts 67°
2026-05-04 18:08 45.15092 4.70016 34014 ft 497 kts 67°
2026-05-04 18:08 45.18774 4.78317 34032 ft 497 kts 67°
2026-05-04 18:09 45.22448 4.86631 33826 ft 496 kts 67°
2026-05-04 18:09 45.26110 4.94932 33104 ft 494 kts 67°
2026-05-04 18:10 45.27924 4.99052 32255 ft 492 kts 67°
2026-05-04 18:10 45.29745 5.03164 31352 ft 492 kts 66°
2026-05-04 18:10 45.31571 5.07267 30486 ft 491 kts 65°
2026-05-04 18:10 45.33413 5.11365 29582 ft 491 kts 65°
2026-05-04 18:11 45.35247 5.15395 28969 ft 482 kts 65°
2026-05-04 18:11 45.37035 5.19366 28357 ft 473 kts 65°
2026-05-04 18:11 45.38777 5.23306 27737 ft 466 kts 66°
2026-05-04 18:11 45.40473 5.27195 27131 ft 459 kts 66°
2026-05-04 18:12 45.42129 5.31035 26522 ft 452 kts 67°
2026-05-04 18:12 45.43757 5.34823 25927 ft 446 kts 67°
2026-05-04 18:12 45.45366 5.38572 25336 ft 440 kts 67°
2026-05-04 18:12 45.46421 5.41018 24943 ft 436 kts 65°
2026-05-04 18:13 45.48982 5.45376 24281 ft 429 kts 49°
2026-05-04 18:13 45.51313 5.47954 23783 ft 422 kts 38°
2026-05-04 18:13 45.56437 5.51765 22579 ft 410 kts 33°
2026-05-04 18:14 45.58149 5.53024 22186 ft 406 kts 34°
2026-05-04 18:14 45.60621 5.54922 21619 ft 400 kts 36°
2026-05-04 18:14 45.63043 5.56853 21049 ft 397 kts 36°
2026-05-04 18:15 45.67787 5.60711 19893 ft 393 kts 36°
2026-05-04 18:15 45.72537 5.64440 18749 ft 385 kts 36°
2026-05-04 18:15 45.74880 5.66281 18165 ft 382 kts 35°
2026-05-04 18:16 45.77204 5.68107 17725 ft 384 kts 35°
2026-05-04 18:16 45.79588 5.69986 17476 ft 397 kts 33°
2026-05-04 18:16 45.82023 5.71866 17153 ft 397 kts 33°
2026-05-04 18:17 45.86827 5.75659 16531 ft 390 kts 39°
2026-05-04 18:17 45.88800 5.78216 16189 ft 379 kts 57°
2026-05-04 18:17 45.91942 5.84340 15563 ft 383 kts 61°
2026-05-04 18:18 45.93490 5.87438 15250 ft 381 kts 60°
2026-05-04 18:18 45.95113 5.90451 14918 ft 382 kts 53°
2026-05-04 18:18 45.96929 5.93211 14655 ft 380 kts 51°
2026-05-04 18:18 45.98785 5.95898 14345 ft 378 kts 50°
2026-05-04 18:19 46.02504 6.01240 13742 ft 373 kts 49°
2026-05-04 18:19 46.04325 6.03837 13411 ft 367 kts 50°
2026-05-04 18:19 46.06124 6.06429 13122 ft 364 kts 50°
2026-05-04 18:20 46.07905 6.09010 12829 ft 363 kts 50°
2026-05-04 18:20 46.09678 6.11598 12545 ft 361 kts 51°
2026-05-04 18:20 46.11432 6.14191 12266 ft 360 kts 51°
2026-05-04 18:20 46.13153 6.16740 11975 ft 358 kts 51°
2026-05-04 18:21 46.14884 6.19303 11681 ft 357 kts 51°
2026-05-04 18:21 46.16615 6.21873 11396 ft 354 kts 51°
2026-05-04 18:21 46.18280 6.24355 11216 ft 336 kts 53°
2026-05-04 18:21 46.19856 6.26749 10951 ft 320 kts 54°
2026-05-04 18:22 46.21357 6.29026 10697 ft 308 kts 54°
2026-05-04 18:22 46.22836 6.31267 10459 ft 309 kts 54°
2026-05-04 18:22 46.24325 6.33507 10219 ft 309 kts 54°
2026-05-04 18:22 46.25819 6.35733 9922 ft 308 kts 53°
2026-05-04 18:23 46.27309 6.37934 9607 ft 306 kts 53°
2026-05-04 18:23 46.28798 6.40130 9358 ft 305 kts 54°
2026-05-04 18:23 46.30270 6.42299 9147 ft 294 kts 55°
2026-05-04 18:23 46.31654 6.44346 8948 ft 277 kts 57°
2026-05-04 18:24 46.32977 6.46313 8629 ft 270 kts 56°
2026-05-04 18:24 46.34289 6.48253 8496 ft 269 kts 57°
2026-05-04 18:24 46.35592 6.50190 8292 ft 268 kts 57°
2026-05-04 18:24 46.36925 6.52081 8053 ft 270 kts 48°
2026-05-04 18:25 46.38550 6.53475 7735 ft 274 kts 29°
2026-05-04 18:25 46.40390 6.54099 7257 ft 271 kts 10°
2026-05-04 18:25 46.42244 6.53815 6978 ft 267 kts 350°
2026-05-04 18:25 46.43902 6.52652 7012 ft 265 kts 331°
2026-05-04 18:26 46.45284 6.50915 7024 ft 262 kts 321°
2026-05-04 18:26 46.46477 6.48943 6989 ft 259 kts 310°
2026-05-04 18:26 46.47255 6.46612 7015 ft 257 kts 291°
2026-05-04 18:26 46.47466 6.44064 7021 ft 254 kts 271°
2026-05-04 18:27 46.47098 6.41612 7022 ft 245 kts 253°
2026-05-04 18:27 46.46206 6.39544 6928 ft 241 kts 234°
2026-05-04 18:27 46.44914 6.38066 6775 ft 233 kts 220°
2026-05-04 18:27 46.43541 6.36989 6504 ft 217 kts 217°
2026-05-04 18:28 46.42227 6.36018 6155 ft 209 kts 218°
2026-05-04 18:28 46.40972 6.34988 5788 ft 205 kts 221°
2026-05-04 18:28 46.39810 6.33796 5466 ft 204 kts 227°
2026-05-04 18:28 46.38729 6.32459 5175 ft 204 kts 230°
2026-05-04 18:29 46.37705 6.31083 4922 ft 199 kts 231°
2026-05-04 18:29 46.36729 6.29700 4683 ft 193 kts 232°
2026-05-04 18:29 46.35790 6.28363 4411 ft 186 kts 232°
2026-05-04 18:29 46.34878 6.27043 4163 ft 186 kts 233°
2026-05-04 18:30 46.33069 6.24399 3641 ft 183 kts 234°
2026-05-04 18:30 46.32205 6.23158 3426 ft 163 kts 234°
2026-05-04 18:30 46.31443 6.22025 3213 ft 157 kts 237°
2026-05-04 18:31 46.30684 6.20886 2879 ft 159 kts 232°
2026-05-04 18:31 46.29855 6.19820 2526 ft 159 kts 232°
2026-05-04 18:31 46.29066 6.18711 2385 ft 158 kts 237°
2026-05-04 18:31 46.28332 6.17534 2197 ft 158 kts 237°
2026-05-04 18:32 46.27562 6.16397 1969 ft 158 kts 236°
2026-05-04 18:32 46.26795 6.15273 1866 ft 158 kts 237°
2026-05-04 18:32 46.26029 6.14153 1689 ft 156 kts 237°
2026-05-04 18:32 46.25266 6.13041 1475 ft 156 kts 237°
2026-05-04 18:33 46.24521 6.11945 1371 ft 142 kts 226°
2026-05-04 18:33 46.24014 6.11201 1384 ft 61 kts 225°
2026-05-04 18:33 46.23754 6.10840 1380 ft 45 kts 211°
2026-05-04 18:33 46.23549 6.10710 1383 ft 23 kts 193°
2026-05-04 18:34 46.23504 6.10694 1382 ft 0 kts 194°
2026-05-04 18:35 46.23458 6.10676 1384 ft 11 kts 195°
2026-05-04 18:36 46.23395 6.10635 1385 ft 8 kts 216°
2026-05-04 18:36 46.23355 6.10583 1389 ft 9 kts 223°
2026-05-04 18:36 46.23281 6.10471 1398 ft 18 kts 226°
2026-05-04 18:36 46.23208 6.10364 1401 ft 13 kts 225°
2026-05-04 18:37 46.23147 6.10375 1402 ft 10 kts 136°
2026-05-04 18:37 46.23120 6.10418 1402 ft 0 kts 134°
2026-05-04 18:37 46.23116 6.10424 1399 ft 2 kts 134°
2026-05-04 18:37 46.23080 6.10475 1398 ft 7 kts 136°
2026-05-04 18:38 46.23057 6.10483 1401 ft 6 kts 184°
2026-05-04 18:38 46.23039 6.10489 1398 ft 3 kts 143°
2026-05-04 18:38 46.23016 6.10519 1398 ft 2 kts 137°
2026-05-04 18:38 46.23014 6.10522 1398 ft 0 kts 137°